Location: Ferchesar
(52.6477°N, 12.4298°E)
Time: 02:40:48
(UTC+01:00)

Transit 2A - Pass Details

Date: 15 December 2021
Orbit: 591 x 967 km, 66.7° (Epoch: 17 January)

Event Time Altitude Azimuth Distance (km) Brightness Sun altitude
Exits shadow 05:34:58 34° 325° (NW) 1,551 7.2 -22.8°
Maximum altitude 05:38:00 81° 49° (NE) 972 6.5 -22.4°
Drops below altitude 10° 05:44:11 10° 138° (SE) 2,607 9.5 -21.4°
Sets 05:46:38 0° 139° (SE) 3,504 10.2 -21.1°
